This is the latest recevied weather packets stored in our database for station/object EA7JCM-13. If no packets are shown the sender has not sent any weather packets the latest 10 day(s).
| Time | Temp. | Humidity | Pressure | Rain* | Wind** | Luminosity | Snow |
|---|---|---|---|---|---|---|---|
| 1778097302 | 17.78° C | 37% | 1005.9 hPa | 0 mm | - | - | - |
| 1778097001 | 17.78° C | 37% | 1005.9 hPa | 0 mm | - | - | - |
| 1778096702 | 18.33° C | 35% | 1006.1 hPa | 0 mm | - | - | - |
| 1778096401 | 18.33° C | 33% | 1005.7 hPa | 0 mm | - | - | - |
| 1778096101 | 18.89° C | 33% | 1005.8 hPa | 0 mm | - | - | - |
| 1778095802 | 18.89° C | 32% | 1005.6 hPa | 0 mm | - | - | - |
| 1778095501 | 18.89° C | 32% | 1005.7 hPa | 0 mm | - | - | - |
| 1778095201 | 18.89° C | 31% | 1005.9 hPa | 0 mm | - | - | - |
| 1778094901 | 19.44° C | 31% | 1005.7 hPa | 0 mm | - | - | - |
| 1778094601 | 19.44° C | 30% | 1005.6 hPa | 0 mm | - | - | - |
| 1778094302 | 19.44° C | 29% | 1005.6 hPa | 0 mm | - | - | - |
| 1778094002 | 20° C | 28% | 1005.6 hPa | 0 mm | - | - | - |
| 1778093701 | 20° C | 27% | 1005.6 hPa | 0 mm | - | - | - |
| 1778093401 | 20.56° C | 27% | 1005.6 hPa | 0 mm | - | - | - |
| 1778093102 | 20.56° C | 27% | 1005.5 hPa | 0 mm | - | - | - |
| 1778092802 | 20.56° C | 28% | 1005.8 hPa | 0 mm | - | - | - |
| 1778092502 | 20.56° C | 28% | 1005.5 hPa | 0 mm | - | - | - |
| 1778092202 | 20.56° C | 27% | 1005.5 hPa | 0 mm | - | - | - |
| 1778091902 | 20.56° C | 28% | 1005.5 hPa | 0 mm | - | - | - |
| 1778091601 | 20° C | 28% | 1005.6 hPa | 0 mm | - | - | - |
| 1778091303 | 21.11° C | 29% | 1005.6 hPa | 0 mm | - | - | - |
| 1778091002 | 20.56° C | 29% | 1005.5 hPa | 0 mm | - | - | - |
| 1778090702 | 20.56° C | 29% | 1005.5 hPa | 0 mm | - | - | - |
| 1778090402 | 21.11° C | 28% | 1005.7 hPa | 0 mm | - | - | - |
| 1778090102 | 20.56° C | 27% | 1005.7 hPa | 0 mm | - | - | - |
* Rain latest hour (hover to see other rain measurements)
** Current wind speed in m/s (hover to see current wind gust speed)